Sprague, Manitoba

8:26 PM CDT on March 29, 2017 (GMT -0500)
Sprague

Weather History for CWSU - September, 2013

Change the Weather History Date:

Friday, September 27, 2013

  Actual Average Record
Temperature  
Mean Temperature 53 °F -  
Max Temperature 55 °F 51 °F - ()
Min Temperature 51 °F 33 °F - ()
Degree Days  
Heating Degree Days 12    
Growing Degree Days 3 (Base 50)    
Moisture  
Dew Point 51 °F    
Average Humidity 89    
Maximum Humidity 95    
Minimum Humidity 76    
Precipitation  
Precipitation 1.81 in - - ()
Sea Level Pressure  
Sea Level Pressure 29.78 in    
Wind  
Wind Speed 4 mph ()    
Max Wind Speed 8 mph    
Max Gust Speed -    
T = Trace of Precipitation, MM = Missing Value Source: Averaged Metar Reports

Daily Weather History Graph

Daily Weather History Graph

Search for Another Location

Airport or City:

Trip Planner

Search our weather history database for the weather conditions in past years. The results will help you decide how hot, cold, wet, or windy it might be!

Date:

Astronomy

Sep. 27, 2013 Rise Set
Actual Time 7:16 AM CDT 7:09 PM CDT
Civil Twilight 6:45 AM CDT 7:40 PM CDT
Nautical Twilight 6:08 AM CDT 8:17 PM CDT
Astronomical Twilight 5:30 AM CDT 8:55 PM CDT
Moon No Moon Rise 3:15 PM CDT (9/27)
Length of Visible Light 12h 55m
Length of Day
11h 52m
Last Quarter, 45% of the Moon is Illuminated
Sep 27
Last Quarter
Oct 4
New
Oct 11
First Quarter
Oct 18
Full
Oct 26
Last Quarter

Hourly Weather History & Observations

Time (CDT) Temp. Dew Point Humidity Pressure Visibility Wind Dir Wind Speed Gust Speed Precip Events Conditions
12:00 AM 65.8 °F 58.1 °F 76% 29.78 in - SW 3.5 mph - N/A   Unknown
1:00 AM 63 °F 58 °F 77% 29.79 in - West 6.9 mph - -  
1:00 AM 62.8 °F 57.6 °F 83% 29.79 in - West 8.1 mph - N/A   Unknown
2:00 AM 58.3 °F 51.1 °F 77% 29.81 in - WNW 4.6 mph - N/A   Unknown
3:00 AM 55.0 °F 50.7 °F 85% 29.82 in - West 2.3 mph - N/A   Unknown
4:00 AM 55.6 °F 50.5 °F 83% 29.81 in - NW 4.6 mph - N/A   Unknown
5:00 AM 53.8 °F 49.6 °F 86% 29.81 in - WSW 4.6 mph - N/A   Unknown
6:00 AM 53.8 °F 49.5 °F 85% 29.80 in - NW 2.3 mph - N/A   Unknown
7:00 AM 55 °F 50 °F 76% 29.80 in - WSW 1.2 mph - -  
7:00 AM 54.7 °F 49.8 °F 84% 29.80 in - SSW 1.2 mph - N/A   Unknown
8:00 AM 53.2 °F 50.2 °F 89% 29.82 in - SSW 4.6 mph - 0.02 in   Unknown
9:00 AM 53.6 °F 51.3 °F 92% 29.80 in - NNW 2.3 mph - 0.01 in   Unknown
10:00 AM 52.3 °F 50.4 °F 93% 29.79 in - NNW 4.6 mph - 0.30 in   Unknown
11:00 AM 52.0 °F 50.4 °F 94% 29.75 in - East 8.1 mph - 0.50 in   Unknown
12:00 PM 51.6 °F 50.4 °F 95% 29.79 in - SW 1.2 mph - 0.54 in   Unknown
1:00 PM 52 °F 51 °F 93% 29.77 in - NNE 3.5 mph - -  
1:00 PM 52.3 °F 50.7 °F 94% 29.77 in - North 4.6 mph - 0.11 in   Unknown
2:00 PM 52.2 °F 50.9 °F 95% 29.76 in - NW 6.9 mph - N/A   Unknown
3:00 PM 52.3 °F 51.1 °F 95% 29.74 in - NNW 6.9 mph - 0.02 in   Unknown
4:00 PM 52.0 °F 50.5 °F 95% 29.74 in - NNW 5.8 mph - 0.05 in   Unknown
5:00 PM 52.2 °F 50.9 °F 95% 29.74 in - NNW 5.8 mph - 0.05 in   Unknown
6:00 PM 52.3 °F 50.9 °F 95% 29.75 in - NW 4.6 mph - N/A   Unknown
7:00 PM 52 °F 51 °F 94% 29.74 in - North 3.5 mph - -  
7:00 PM 52.2 °F 50.7 °F 95% 29.74 in - North 4.6 mph - 0.01 in   Unknown
8:00 PM 52.3 °F 50.9 °F 95% 29.76 in - WSW 1.2 mph - N/A   Unknown
9:00 PM 52.5 °F 50.9 °F 94% 29.75 in - ESE 1.2 mph - N/A   Unknown
10:00 PM 52.5 °F 51.1 °F 95% 29.75 in - SE 2.3 mph - 0.01 in   Unknown
11:00 PM 52.3 °F 51.1 °F 95% 29.78 in - West 6.9 mph - N/A   Unknown